K5GTX Weather Reports


time (UTC)temp
C
wind
direction
speed
KPH
gust
KPH
rain 1hr
cm
rain 24hr
cm
rain mn
cm
humidity
%
barometer
mb
20260503230609 28 270 0.0 16.1 0.00 0.00 0.00 99 1022.2
20260503230105 28 171 3.2 14.5 0.00 0.00 0.00 99 1022.0
20260503225602 27 148 4.8 9.7 0.00 0.00 0.00 99 1022.0
20260503225057 28 126 0.0 8.0 0.00 0.00 0.00 99 1021.9
20260503224555 28 225 0.0 14.5 0.00 0.00 0.00 99 1022.0
20260503224053 28 195 4.8 9.7 0.00 0.00 0.00 99 1022.0
20260503223550 27 218 3.2 16.1 0.00 0.00 0.00 99 1022.0
20260503223045 27 203 8.0 20.9 0.00 0.00 0.00 99 1022.0
20260503222544 27 117 3.2 20.9 0.00 0.00 0.00 99 1022.3
20260503222041 27 257 3.2 22.5 0.00 0.00 0.00 99 1022.3
20260503221539 28 240 4.8 12.9 0.00 0.00 0.00 99 1022.2
20260503221037 28 132 0.0 11.3 0.00 0.00 0.00 99 1022.4
20260503220533 28 239 0.0 20.9 0.00 0.00 0.00 99 1022.6
20260503220029 28 107 3.2 11.3 0.00 0.00 0.00 99 1022.5
20260503215527 27 239 4.8 11.3 0.00 0.00 0.00 99 1022.3
20260503215024 27 251 14.5 19.3 0.00 0.00 0.00 99 1022.5
20260503214522 27 205 6.4 22.5 0.00 0.00 0.00 99 1022.6
20260503214018 28 251 8.0 14.5 0.00 0.00 0.00 99 1022.6
20260503213517 28 129 3.2 12.9 0.00 0.00 0.00 99 1022.7
20260503213013 28 162 0.0 17.7 0.00 0.00 0.00 99 1022.4
20260503212510 29 187 3.2 9.7 0.00 0.00 0.00 99 1023.1
20260503212008 28 75 4.8 12.9 0.00 0.00 0.00 99 1022.8
20260503211505 28 109 3.2 11.3 0.00 0.00 0.00 99 1022.9
20260503211000 28 120 3.2 17.7 0.00 0.00 0.00 99 1023.2
20260503210458 28 234 6.4 14.5 0.00 0.00 0.00 99 1023.1
20260503205957 27 102 0.0 17.7 0.00 0.00 0.00 99 1023.2
20260503205455 28 188 3.2 16.1 0.00 0.00 0.00 99 1023.3
20260503204951 28 135 3.2 8.0 0.00 0.00 0.00 99 1023.5
20260503204448 28 218 14.5 17.7 0.00 0.00 0.00 99 1023.5
20260503203945 28 166 4.8 6.4 0.00 0.00 0.00 99 1023.4
20260503203443 28 270 4.8 6.4 0.00 0.00 0.00 99 1023.8
20260503202939 28 139 0.0 8.0 0.00 0.00 0.00 99 1023.7
20260503202438 27 243 1.6 3.2 0.00 0.00 0.00 99 1024.1
20260503201936 27 203 3.2 12.9 0.00 0.00 0.00 99 1024.2
20260503201433 27 180 0.0 12.9 0.00 0.00 0.00 99 1023.9
20260503200930 27 111 1.6 9.7 0.00 0.00 0.00 99 1024.2
20260503200426 27 263 11.3 14.5 0.00 0.00 0.00 99 1024.2
20260503195923 27 127 0.0 4.8 0.00 0.00 0.00 99 1024.3
20260503195421 27 303 8.0 14.5 0.00 0.00 0.00 99 1024.7
20260503194917 27 188 4.8 22.5 0.00 0.00 0.00 99 1024.4
20260503194413 27 258 8.0 12.9 0.00 0.00 0.00 99 1024.7
20260503193909 27 228 3.2 17.7 0.00 0.00 0.00 99 1024.6
20260503193405 27 245 11.3 22.5 0.00 0.00 0.00 99 1024.8
20260503192900 27 228 6.4 16.1 0.00 0.00 0.00 99 1024.9
20260503192356 27 140 0.0 14.5 0.00 0.00 0.00 99 1024.9
20260503191853 27 210 3.2 12.9 0.00 0.00 0.00 99 1025.2
20260503191350 26 219 4.8 19.3 0.00 0.00 0.00 99 1025.2
20260503190847 27 234 12.9 14.5 0.00 0.00 0.00 99 1025.1
20260503190344 27 135 3.2 12.9 0.00 0.00 0.00 99 1025.1
20260503185841 27 246 4.8 8.0 0.00 0.00 0.00 99 1025.1
20260503185337 26 258 6.4 20.9 0.00 0.00 0.00 99 1025.2
20260503184837 26 257 6.4 16.1 0.00 0.00 0.00 99 1025.5
20260503184333 26 249 8.0 16.1 0.00 0.00 0.00 99 1025.6
20260503183829 27 248 4.8 6.4 0.00 0.00 0.00 99 1025.7
20260503183326 26 217 3.2 27.4 0.00 0.00 0.00 99 1025.9
20260503182824 26 258 4.8 16.1 0.00 0.00 0.00 99 1026.1
20260503182323 26 196 0.0 8.0 0.00 0.00 0.00 99 1025.9
20260503181820 26 216 16.1 20.9 0.00 0.00 0.00 99 1026.1
20260503181317 26 202 3.2 16.1 0.00 0.00 0.00 99 1026.0
20260503180813 26 199 4.8 17.7 0.00 0.00 0.00 99 1026.0
20260503180311 27 152 0.0 6.4 0.00 0.00 0.00 99 1026.5
20260503175807 26 242 6.4 16.1 0.00 0.00 0.00 99 1026.5
20260503175306 26 216 0.0 20.9 0.00 0.00 0.00 99 1026.5
20260503174800 25 314 6.4 20.9 0.00 0.00 0.00 99 1026.7
20260503174259 26 227 4.8 22.5 0.00 0.00 0.00 99 1026.7
20260503173754 26 135 4.8 12.9 0.00 0.00 0.00 99 1026.8
20260503173250 26 246 6.4 14.5 0.00 0.00 0.00 99 1027.2
20260503172747 25 220 4.8 11.3 0.00 0.00 0.00 99 1027.2
20260503172244 25 232 6.4 24.1 0.00 0.00 0.00 99 1027.2
20260503171741 25 241 14.5 19.3 0.00 0.00 0.00 99 1026.9
20260503171238 25 236 6.4 17.7 0.00 0.00 0.00 99 1026.9
20260503170735 25 195 0.0 20.9 0.00 0.00 0.00 99 1027.2
20260503170232 25 242 9.7 17.7 0.00 0.00 0.00 99 1027.3
20260503160154 23 261 12.9 14.5 0.00 0.00 0.00 99 1027.7
20260503150624 22 243 3.2 17.7 0.00 0.00 0.00 99 1027.6
20260503150120 22 297 4.8 17.7 0.00 0.00 0.00 99 1027.6
20260503131014 15 4 0.0 0.0 0.00 0.00 0.00 99 1027.4
20260503130511 15 4 0.0 0.0 0.00 0.00 0.00 99 1027.5
20260503110401 11 0 0.0 0.0 0.00 0.00 0.00 99 1026.6
20260503090252 12 23 0.0 0.0 0.00 0.00 0.00 99 1026.4
20260503081220 12 90 0.0 0.0 0.00 0.00 0.00 99 1026.3
20260503080715 13 90 0.0 0.0 0.00 0.00 0.00 99 1026.6
20260503080213 13 270 0.0 0.0 0.00 0.00 0.00 99 1026.1
20260503072649 14 270 0.0 0.0 0.00 0.00 0.00 99 1026.4
20260503072146 14 270 0.0 0.0 0.00 0.00 0.00 99 1026.4
20260503071643 15 270 0.0 1.6 0.00 0.00 0.00 99 1026.6
20260503071139 15 279 0.0 0.0 0.00 0.00 0.00 99 1026.5
20260503070637 14 0 0.0 0.0 0.00 0.00 0.00 99 1026.7
20260503070135 15 255 0.0 0.0 0.00 0.00 0.00 99 1026.6
20260503055050 15 229 0.0 3.2 0.00 0.00 0.00 99 1026.6
20260503054546 15 66 0.0 0.0 0.00 0.00 0.00 99 1026.3
20260503054043 15 66 0.0 1.6 0.00 0.00 0.00 99 1026.5
20260503053541 14 105 0.0 1.6 0.00 0.00 0.00 99 1026.7
20260503053039 14 90 0.0 0.0 0.00 0.00 0.00 99 1026.6
20260503052535 14 90 0.0 0.0 0.00 0.00 0.00 99 1026.5
20260503052031 14 90 0.0 0.0 0.00 0.00 0.00 99 1026.5
20260503051527 15 90 0.0 0.0 0.00 0.00 0.00 99 1026.4
20260503051025 15 90 0.0 0.0 0.00 0.00 0.00 99 1026.5
20260503050520 15 90 0.0 0.0 0.00 0.00 0.00 99 1026.4
20260503050018 15 90 0.0 0.0 0.00 0.00 0.00 99 1026.3
20260503045515 15 90 0.0 0.0 0.00 0.00 0.00 99 1026.1
20260503045012 15 90 0.0 0.0 0.00 0.00 0.00 99 1026.3
20260503044509 15 90 0.0 0.0 0.00 0.00 0.00 99 1026.3
20260503044007 15 90 0.0 0.0 0.00 0.00 0.00 99 1026.3
20260503043503 15 90 0.0 0.0 0.00 0.00 0.00 99 1026.1
20260503042959 15 90 0.0 0.0 0.00 0.00 0.00 99 1026.1
20260503042456 15 90 0.0 0.0 0.00 0.00 0.00 99 1026.3
20260503041952 15 90 0.0 0.0 0.00 0.00 0.00 99 1026.2
20260503041449 15 90 0.0 0.0 0.00 0.00 0.00 99 1026.2
20260503040947 15 90 0.0 0.0 0.00 0.00 0.00 99 1026.4
20260503040444 15 90 0.0 0.0 0.00 0.00 0.00 99 1026.4
20260503035941 15 90 0.0 0.0 0.00 0.00 0.00 99 1026.4
20260503035438 16 90 0.0 0.0 0.00 0.00 0.00 99 1026.4
20260503034936 16 90 0.0 0.0 0.00 0.00 0.00 99 1026.3
20260503034433 16 90 0.0 0.0 0.00 0.00 0.00 99 1026.3
20260503033930 16 90 0.0 0.0 0.00 0.00 0.00 99 1026.4
20260503033427 16 90 0.0 0.0 0.00 0.00 0.00 99 1026.1
20260503032925 16 90 0.0 0.0 0.00 0.00 0.00 99 1026.2
20260503032424 17 90 0.0 0.0 0.00 0.00 0.00 99 1026.3
20260503031921 17 90 0.0 1.6 0.00 0.00 0.00 99 1026.3
20260503031418 17 203 0.0 0.0 0.00 0.00 0.00 99 1026.1
20260503030915 17 203 0.0 0.0 0.00 0.00 0.00 99 1026.0
20260503030411 17 157 0.0 1.6 0.00 0.00 0.00 99 1026.1
20260503025908 17 90 0.0 0.0 0.00 0.00 0.00 99 1025.9
20260503025405 17 105 0.0 1.6 0.00 0.00 0.00 99 1026.3
20260503024903 17 234 0.0 0.0 0.00 0.00 0.00 99 1025.8
20260503024359 17 234 0.0 0.0 0.00 0.00 0.00 99 1025.9
20260503023856 17 234 0.0 0.0 0.00 0.00 0.00 99 1025.9
20260503023353 17 234 0.0 0.0 0.00 0.00 0.00 99 1025.8
20260503022849 17 234 0.0 0.0 0.00 0.00 0.00 99 1025.9
20260503022344 17 234 0.0 0.0 0.00 0.00 0.00 99 1025.6
20260503021841 18 234 0.0 0.0 0.00 0.00 0.00 99 1025.7
20260503021337 18 234 0.0 0.0 0.00 0.00 0.00 99 1025.5
20260503020834 18 234 0.0 0.0 0.00 0.00 0.00 99 1025.5
20260503020332 18 234 0.0 0.0 0.00 0.00 0.00 99 1025.4
20260503015829 18 234 0.0 0.0 0.00 0.00 0.00 99 1025.5
20260503015326 19 234 0.0 0.0 0.00 0.00 0.00 99 1025.5
20260503014821 19 234 0.0 0.0 0.00 0.00 0.00 99 1025.5
20260503014319 19 234 0.0 0.0 0.00 0.00 0.00 99 1025.4
20260503013816 20 234 0.0 0.0 0.00 0.00 0.00 99 1025.4
20260503013314 20 234 0.0 0.0 0.00 0.00 0.00 99 1025.2
20260503012811 21 234 0.0 0.0 0.00 0.00 0.00 99 1025.4
20260503012308 21 234 0.0 0.0 0.00 0.00 0.00 99 1025.1
20260503011805 21 234 0.0 3.2 0.00 0.00 0.00 99 1025.1
20260503011302 22 270 0.0 0.0 0.00 0.00 0.00 99 1025.1
20260503010758 22 270 0.0 1.6 0.00 0.00 0.00 99 1025.2
20260503010255 22 255 0.0 3.2 0.00 0.00 0.00 99 1024.8
20260503005752 22 270 0.0 3.2 0.00 0.00 0.00 99 1025.0
20260503005250 23 270 0.0 4.8 0.00 0.00 0.00 99 1025.0
20260503004745 23 279 0.0 3.2 0.00 0.00 0.00 99 1024.9
20260503004244 23 311 4.8 6.4 0.00 0.00 0.00 99 1024.7
20260503003740 23 286 0.0 1.6 0.00 0.00 0.00 99 1024.9
20260503003238 24 270 0.0 4.8 0.00 0.00 0.00 99 1024.8
20260503002734 24 297 1.6 4.8 0.00 0.00 0.00 99 1024.8
20260503002231 24 263 4.8 6.4 0.00 0.00 0.00 99 1024.8
20260503001727 24 254 1.6 8.0 0.00 0.00 0.00 99 1024.8
20260503001224 24 291 4.8 9.7 0.00 0.00 0.00 99 1024.9
20260503000722 25 332 3.2 6.4 0.00 0.00 0.00 99 1024.9
20260503000219 25 290 3.2 6.4 0.00 0.00 0.00 99 1025.0
20260502235716 25 217 3.2 8.0 0.00 0.00 0.00 99 1024.8
20260502235214 25 351 4.8 6.4 0.00 0.00 0.00 99 1024.8
20260502234710 26 261 1.6 1.6 0.00 0.00 0.00 99 1024.5
20260502234207 25 281 4.8 11.3 0.00 0.00 0.00 99 1024.7
20260502233703 25 297 3.2 11.3 0.00 0.00 0.00 99 1024.7
20260502233200 25 294 0.0 4.8 0.00 0.00 0.00 99 1024.8
20260502232655 25 265 3.2 4.8 0.00 0.00 0.00 99 1025.1
20260502232153 25 259 3.2 8.0 0.00 0.00 0.00 99 1024.9
20260502231649 25 258 4.8 9.7 0.00 0.00 0.00 99 1025.0
20260502231147 24 260 9.7 9.7 0.00 0.00 0.00 99 1025.0